Weather History for KCOQ - December, 2011

Change the Weather History Date:

Thursday, December 15, 2011

  Actual Average Record
Temperature  
Mean Temperature 22 °F -  
Max Temperature 33 °F 23 °F 42 °F (1997)
Min Temperature 12 °F 10 °F -16 °F (2013)
Degree Days  
Heating Degree Days 42    
Moisture  
Dew Point 19 °F    
Average Humidity 80    
Maximum Humidity 93    
Minimum Humidity 68    
Precipitation  
Precipitation 0.00 in - - ()
Sea Level Pressure  
Sea Level Pressure 29.85 in    
Wind  
Wind Speed 12 mph (WNW)    
Max Wind Speed 25 mph    
Max Gust Speed 36 mph    
Visibility 8 miles    
Events Snow    
Averages and records for this station are not official NWS values.
T = Trace of Precipitation, MM = Missing Value Source: NWS Daily Summary

Daily Weather History Graph

Daily Weather History Graph

Search for Another Location

Airport or City:

Trip Planner

Search our weather history database for the weather conditions in past years. The results will help you decide how hot, cold, wet, or windy it might be!

Date:

Astronomy

Dec. 15, 2011 Rise Set
Actual Time 7:47 AM CST 4:22 PM CST
Civil Twilight 7:12 AM CST 4:57 PM CST
Nautical Twilight 6:34 AM CST 5:36 PM CST
Astronomical Twilight 5:57 AM CST 6:13 PM CST
Moon 10:06 PM CST (12/15) 10:49 AM CST (12/15)
Length of Visible Light 9h 45m
Length of Day
8h 34m
Waning Gibbous, 74% of the Moon is Illuminated
Dec 15
Waning Gibbous
Dec 17
Last Quarter
Dec 24
New
Jan 1
First Quarter
Jan 9
Full

Hourly Weather History & Observations

Time (CST) Temp. Windchill Dew Point Humidity Pressure Visibility Wind Dir Wind Speed Gust Speed Precip Events Conditions
12:16 AM 33.8 °F 29.6 °F 30.2 °F 87% 29.57 in 7.0 mi West 4.6 mph - N/A   Overcast
12:36 AM 33.8 °F 29.6 °F 30.2 °F 87% 29.57 in 7.0 mi West 4.6 mph - N/A   Overcast
12:56 AM 33.8 °F 27.7 °F 30.2 °F 87% 29.57 in 7.0 mi West 6.9 mph - N/A   Overcast
1:16 AM 33.8 °F 27.0 °F 30.2 °F 87% 29.57 in 5.0 mi West 8.1 mph - N/A   Overcast
1:36 AM 33.8 °F 27.0 °F 30.2 °F 87% 29.57 in 7.0 mi West 8.1 mph - N/A   Overcast
1:55 AM 33.8 °F 27.0 °F 30.2 °F 87% 29.57 in 4.0 mi West 8.1 mph - N/A Snow Light Snow
2:16 AM 33.8 °F 27.0 °F 30.2 °F 87% 29.57 in 2.5 mi West 8.1 mph - N/A   Overcast
2:56 AM 33.8 °F 27.0 °F 30.2 °F 87% 29.58 in 5.0 mi West 8.1 mph - N/A Snow Light Snow
3:16 AM 33.8 °F 27.7 °F 30.2 °F 87% 29.58 in 7.0 mi West 6.9 mph - N/A Snow Light Snow
3:36 AM 33.8 °F 25.3 °F 30.2 °F 87% 29.58 in 4.0 mi West 11.5 mph - N/A Snow Light Snow
3:55 AM 32.0 °F 22.5 °F 30.2 °F 93% 29.58 in 5.0 mi WNW 12.7 mph 24.2 mph N/A Snow Light Snow
4:16 AM 32.0 °F 22.1 °F 30.2 °F 93% 29.59 in 10.0 mi WNW 13.8 mph 25.3 mph N/A Snow Light Snow
4:36 AM 30.2 °F 18.5 °F 28.4 °F 93% 29.59 in 7.0 mi WNW 17.3 mph 23.0 mph N/A Snow Light Snow
4:56 AM 30.2 °F 19.8 °F 28.4 °F 93% 29.60 in 3.0 mi WNW 13.8 mph 19.6 mph N/A Snow Light Snow
5:15 AM 28.4 °F 17.0 °F 26.6 °F 93% 29.61 in 4.0 mi West 15.0 mph 21.9 mph N/A Snow Light Snow
5:36 AM 28.4 °F 16.6 °F 26.6 °F 93% 29.61 in 7.0 mi West 16.1 mph 23.0 mph N/A Snow Light Snow
6:16 AM 26.6 °F 12.7 °F 24.8 °F 93% 29.64 in 7.0 mi WNW 20.7 mph 28.8 mph N/A Snow Light Snow
6:36 AM 24.8 °F 9.0 °F 21.2 °F 86% 29.65 in 10.0 mi West 25.3 mph 31.1 mph N/A   Overcast
6:56 AM 24.8 °F 11.5 °F 21.2 °F 86% 29.66 in 10.0 mi WNW 17.3 mph 26.5 mph N/A   Overcast
7:36 AM 24.8 °F 12.4 °F 21.2 °F 86% 29.67 in 10.0 mi WNW 15.0 mph 26.5 mph N/A   Overcast
7:56 AM 24.8 °F 12.4 °F 21.2 °F 86% 29.68 in 10.0 mi WNW 15.0 mph 23.0 mph N/A   Overcast
8:16 AM 24.8 °F 12.9 °F 21.2 °F 86% 29.69 in 10.0 mi WNW 13.8 mph 27.6 mph N/A   Overcast
8:36 AM 24.8 °F 12.9 °F 21.2 °F 86% 29.70 in 10.0 mi WNW 13.8 mph 27.6 mph N/A   Overcast
8:56 AM 26.6 °F 15.2 °F 21.2 °F 80% 29.71 in 10.0 mi WNW 13.8 mph 25.3 mph N/A Snow Light Snow
9:16 AM 26.6 °F 14.3 °F 21.2 °F 80% 29.71 in 7.0 mi WNW 16.1 mph 25.3 mph N/A Snow Light Snow
9:36 AM 26.6 °F 13.4 °F 21.2 °F 80% 29.72 in 5.0 mi WNW 18.4 mph 28.8 mph N/A Snow Light Snow
9:56 AM 26.6 °F 14.3 °F 21.2 °F 80% 29.73 in 5.0 mi West 16.1 mph 21.9 mph N/A Snow Light Snow
10:16 AM 26.6 °F 12.7 °F 21.2 °F 80% 29.74 in 10.0 mi West 20.7 mph 28.8 mph N/A Snow Light Snow
10:36 AM 24.8 °F 9.6 °F 19.4 °F 80% 29.75 in 10.0 mi WNW 23.0 mph 29.9 mph N/A   Overcast
10:56 AM 24.8 °F 10.3 °F 19.4 °F 80% 29.76 in 5.0 mi WNW 20.7 mph 32.2 mph N/A Snow Light Snow
11:16 AM 24.8 °F 11.9 °F 19.4 °F 80% 29.77 in 10.0 mi WNW 16.1 mph 31.1 mph N/A   Overcast
11:35 AM 24.8 °F 11.1 °F 19.4 °F 80% 29.77 in 10.0 mi WNW 18.4 mph 32.2 mph N/A   Overcast
11:56 AM 24.8 °F 10.3 °F 19.4 °F 80% 29.78 in 7.0 mi West 20.7 mph 28.8 mph N/A Snow Light Snow
12:35 PM 24.8 °F 11.1 °F 19.4 °F 80% 29.79 in 7.0 mi West 18.4 mph 27.6 mph N/A Snow Light Snow
12:56 PM 24.8 °F 11.9 °F 19.4 °F 80% 29.81 in 7.0 mi WNW 16.1 mph 24.2 mph N/A Snow Light Snow
1:36 PM 24.8 °F 11.1 °F 19.4 °F 80% 29.83 in 10.0 mi WNW 18.4 mph 27.6 mph N/A Snow Light Snow
1:56 PM 24.8 °F 9.3 °F 19.4 °F 80% 29.84 in 10.0 mi WNW 24.2 mph 35.7 mph N/A   Overcast
2:15 PM 24.8 °F 10.7 °F 17.6 °F 74% 29.86 in 10.0 mi WNW 19.6 mph 31.1 mph N/A   Overcast
2:36 PM 24.8 °F 10.0 °F 17.6 °F 74% 29.87 in 7.0 mi WNW 21.9 mph 32.2 mph N/A   Overcast
2:56 PM 24.8 °F 11.1 °F 19.4 °F 80% 29.89 in 3.0 mi WNW 18.4 mph 33.4 mph N/A Snow Light Snow
3:15 PM 24.8 °F 11.5 °F 17.6 °F 74% 29.91 in 10.0 mi WNW 17.3 mph 34.5 mph N/A   Overcast
3:36 PM 24.8 °F 9.3 °F 17.6 °F 74% 29.94 in 7.0 mi WNW 24.2 mph 32.2 mph N/A Snow Light Snow
3:56 PM 24.8 °F 11.9 °F 15.8 °F 69% 29.96 in 10.0 mi WNW 16.1 mph 27.6 mph N/A Snow Light Snow
4:16 PM 23.0 °F 10.1 °F 15.8 °F 74% 29.98 in 10.0 mi WNW 15.0 mph 29.9 mph N/A   Overcast
4:36 PM 23.0 °F 6.9 °F 15.8 °F 74% 30.01 in 10.0 mi NW 24.2 mph 32.2 mph N/A   Overcast
4:55 PM 23.0 °F 11.1 °F 14.0 °F 68% 30.02 in 10.0 mi NW 12.7 mph 25.3 mph N/A   Overcast
5:16 PM 21.2 °F 7.8 °F 12.2 °F 68% 30.05 in 10.0 mi NW 15.0 mph 28.8 mph N/A   Mostly Cloudy
5:36 PM 21.2 °F 4.9 °F 12.2 °F 68% 30.06 in 10.0 mi WNW 23.0 mph 32.2 mph N/A   Mostly Cloudy
5:56 PM 21.2 °F 7.3 °F 12.2 °F 68% 30.08 in 10.0 mi WNW 16.1 mph 29.9 mph N/A   Overcast
6:16 PM 21.2 °F 6.0 °F 12.2 °F 68% 30.11 in 10.0 mi WNW 19.6 mph 25.3 mph N/A   Scattered Clouds
6:35 PM 19.4 °F 4.5 °F 10.4 °F 68% 30.12 in 10.0 mi NW 17.3 mph 26.5 mph N/A   Clear
6:56 PM 19.4 °F 4.1 °F 10.4 °F 68% 30.13 in 10.0 mi NW 18.4 mph 24.2 mph N/A   Clear
7:16 PM 19.4 °F 6.6 °F 10.4 °F 68% 30.14 in 10.0 mi NW 12.7 mph 24.2 mph N/A   Clear
7:35 PM 17.6 °F 5.0 °F 10.4 °F 73% 30.15 in 10.0 mi NW 11.5 mph 19.6 mph N/A   Clear
7:56 PM 17.6 °F 5.7 °F 10.4 °F 73% 30.16 in 10.0 mi NW 10.4 mph - N/A   Clear
8:16 PM 17.6 °F 4.3 °F 10.4 °F 73% 30.17 in 10.0 mi NW 12.7 mph 18.4 mph N/A   Clear
8:36 PM 15.8 °F 8.6 °F 8.6 °F 73% 30.17 in 10.0 mi NW 4.6 mph - N/A   Clear
8:56 PM 15.8 °F 4.2 °F 8.6 °F 73% 30.18 in 10.0 mi NW 9.2 mph - N/A   Clear
9:35 PM 15.8 °F 7.2 °F 8.6 °F 73% 30.20 in 10.0 mi NW 5.8 mph - N/A   Clear
9:56 PM 14.0 °F 2.9 °F 8.6 °F 79% 30.22 in 10.0 mi NW 8.1 mph - N/A   Scattered Clouds
10:16 PM 14.0 °F 3.9 °F 8.6 °F 79% 30.23 in 10.0 mi WNW 6.9 mph - N/A   Mostly Cloudy
10:35 PM 12.2 °F 0.7 °F 6.8 °F 79% 30.23 in 10.0 mi NW 8.1 mph - N/A   Scattered Clouds
10:56 PM 12.2 °F -0.2 °F 6.8 °F 79% 30.23 in 10.0 mi NW 9.2 mph - N/A   Scattered Clouds
11:16 PM 14.0 °F 0.5 °F 6.8 °F 73% 30.24 in 10.0 mi NW 11.5 mph - N/A   Scattered Clouds
11:36 PM 14.0 °F 2.0 °F 6.8 °F 73% 30.24 in 10.0 mi NW 9.2 mph - N/A   Clear
11:55 PM 12.2 °F 2.9 °F 6.8 °F 79% 30.24 in 10.0 mi NW 5.8 mph - N/A   Clear